Claresholm, Alberta

7:49 AM MST on December 07, 2016 (GMT -0700)
Claresholm

Weather History for CWDK - October, 2012

Change the Weather History Date:

Friday, October 12, 2012

  Actual Average Record
Temperature  
Mean Temperature 50 °F -  
Max Temperature 66 °F - - ()
Min Temperature 33 °F - - ()
Degree Days  
Heating Degree Days 16    
Moisture  
Dew Point 33 °F    
Average Humidity 45    
Maximum Humidity 83    
Minimum Humidity 21    
Precipitation  
Precipitation 0.00 in - - ()
Sea Level Pressure  
Sea Level Pressure 29.68 in    
Wind  
Wind Speed 8 mph ()    
Max Wind Speed 24 mph    
Max Gust Speed 32 mph    
T = Trace of Precipitation, MM = Missing Value Source: Averaged Metar Reports

Daily Weather History Graph

Daily Weather History Graph

Search for Another Location

Airport or City:

Trip Planner

Search our weather history database for the weather conditions in past years. The results will help you decide how hot, cold, wet, or windy it might be!

Date:

Astronomy

Oct. 12, 2012 Rise Set
Actual Time 7:52 AM MDT 6:48 PM MDT
Civil Twilight 7:20 AM MDT 7:20 PM MDT
Nautical Twilight 6:42 AM MDT 7:58 PM MDT
Astronomical Twilight 6:05 AM MDT 8:35 PM MDT
Moon 4:24 AM MDT (10/12) 5:12 PM MDT (10/12)
Length of Visible Light 12h 00m
Length of Day
10h 55m
Waning Crescent, 10% of the Moon is Illuminated
Oct 12
Waning Crescent
Oct 15
New
Oct 21
First Quarter
Oct 29
Full
Nov 6
Last Quarter

Hourly Weather History & Observations

Time (MDT) Temp. Windchill Dew Point Humidity Pressure Visibility Wind Dir Wind Speed Gust Speed Precip Events Conditions
12:00 AM 42 °F - 37 °F 75% 29.83 in - SSW 1.2 mph - -  
12:00 AM 41.7 °F - 36.9 °F 83% 29.83 in - SSW 1.2 mph - N/A   Unknown
1:00 AM 41.9 °F 39.0 °F 36.3 °F 81% 29.81 in - ESE 4.6 mph - N/A   Unknown
2:00 AM 43.9 °F 42.3 °F 36.5 °F 75% 29.78 in - East 3.5 mph - N/A   Unknown
3:00 AM 53.6 °F - 34.2 °F 48% 29.74 in - SW 12.7 mph - N/A   Unknown
4:00 AM 54.9 °F - 29.8 °F 38% 29.73 in - WSW 17.3 mph 24.2 mph N/A   Unknown
5:00 AM 55.0 °F - 27.9 °F 35% 29.73 in - West 10.4 mph - N/A   Unknown
6:00 AM 52 °F - 31 °F 33% 29.71 in - SW 12.7 mph - -  
7:00 AM 53.1 °F - 31.5 °F 44% 29.70 in - WSW 17.3 mph - N/A   Unknown
8:00 AM 51.8 °F - 31.8 °F 47% 29.69 in - WSW 18.4 mph - N/A   Unknown
9:00 AM 52.2 °F - 30.7 °F 44% 29.70 in - WSW 12.7 mph - N/A   Unknown
10:00 AM 51.4 °F - 31.8 °F 47% 29.68 in - South 9.2 mph - N/A   Unknown
11:00 AM 54.9 °F - 31.3 °F 41% 29.66 in - SW 12.7 mph - N/A   Unknown
12:00 PM 60 °F - 30 °F 21% 29.63 in - South 13.8 mph - -  
12:00 PM 60.4 °F - 30.2 °F 32% 29.63 in - South 13.8 mph - N/A   Unknown
1:00 PM 64.9 °F - 30.9 °F 28% 29.59 in - SSW 11.5 mph 19.6 mph N/A   Unknown
2:00 PM 65.5 °F - 30.9 °F 27% 29.55 in - West 24.2 mph 32.2 mph N/A   Unknown
3:00 PM 66.7 °F - 31.3 °F 27% 29.55 in - WSW 16.1 mph 23.0 mph N/A   Unknown
4:00 PM 66.4 °F - 31.6 °F 27% 29.56 in - WSW 16.1 mph - N/A   Unknown
5:00 PM 63.7 °F - 31.8 °F 30% 29.59 in - WSW 17.3 mph - N/A   Unknown
6:00 PM 60.1 °F - 31.3 °F 34% 29.61 in - West 9.2 mph - N/A   Unknown
7:00 PM 58.3 °F - 34.7 °F 41% 29.65 in - West 8.1 mph - N/A   Unknown
8:00 PM 51.6 °F - 35.8 °F 55% 29.68 in - North 3.5 mph - N/A   Unknown
9:00 PM 54.0 °F - 33.6 °F 46% 29.70 in - Calm Calm - N/A   Unknown
10:00 PM 50.7 °F - 35.2 °F 55% 29.71 in - SSW 5.8 mph - N/A   Unknown
11:00 PM 51.4 °F - 35.2 °F 54% 29.72 in - West 6.9 mph - N/A   Unknown